This is the latest recevied weather packets stored in our database for station/object EA2FBA-10. If no packets are shown the sender has not sent any weather packets the latest 10 day(s).
| Time | Temp. | Humidity | Pressure | Rain* | Wind** | Luminosity | Snow |
|---|---|---|---|---|---|---|---|
| 1787825399 | 25° C | 47% | 948.8 hPa | - | - | - | - |
| 1787825390 | 25° C | 47% | 948.8 hPa | - | - | - | - |
| 1787824499 | 24.44° C | 47% | 949 hPa | - | - | - | - |
| 1787824490 | 24.44° C | 47% | 949 hPa | - | - | - | - |
| 1787823599 | 23.89° C | 49% | 949.2 hPa | - | - | - | - |
| 1787823590 | 23.89° C | 49% | 949.2 hPa | - | - | - | - |
| 1787822699 | 23.89° C | 49% | 949 hPa | - | - | - | - |
| 1787822689 | 23.89° C | 49% | 949 hPa | - | - | - | - |
| 1787821799 | 23.89° C | 50% | 948.9 hPa | - | - | - | - |
| 1787821789 | 23.89° C | 50% | 948.9 hPa | - | - | - | - |
| 1787820899 | 22.78° C | 51% | 948.7 hPa | - | - | - | - |
| 1787820889 | 22.78° C | 51% | 948.7 hPa | - | - | - | - |
| 1787819989 | 22.78° C | 51% | 948.8 hPa | - | - | - | - |
| 1787819099 | 22.22° C | 53% | 948.8 hPa | - | - | - | - |
| 1787819089 | 22.22° C | 53% | 948.8 hPa | - | - | - | - |
| 1787818199 | 22.22° C | 53% | 949.1 hPa | - | - | - | - |
| 1787818189 | 22.22° C | 53% | 949.1 hPa | - | - | - | - |
| 1787817298 | 22.22° C | 53% | 949.1 hPa | - | - | - | - |
| 1787817289 | 22.22° C | 53% | 949.1 hPa | - | - | - | - |
| 1787816389 | 21.67° C | 53% | 949.2 hPa | - | - | - | - |
| 1787815498 | 21.67° C | 53% | 949.2 hPa | - | - | - | - |
| 1787815489 | 21.67° C | 53% | 949.2 hPa | - | - | - | - |
| 1787814598 | 21.67° C | 53% | 949.2 hPa | - | - | - | - |
| 1787814589 | 21.67° C | 53% | 949.2 hPa | - | - | - | - |
| 1787813698 | 21.67° C | 53% | 949.1 hPa | - | - | - | - |
* Rain since midnight (hover to see other rain measurements)
** Current wind speed in m/s (hover to see current wind gust speed)